| time (UTC) | temp F | wind direction | speed knots | gust knots | rain 1hr in | rain 24hr in | rain mn in | humidity % | barometer mb |
| 20260906220154 | 76 | 76 | 0.9 | 6.1 | 0.00 | 0.00 | 0.00 | 72 | 1018.9 |
| 20260906214627 | 78 | 134 | 1.7 | 3.5 | 0.00 | 0.00 | 0.00 | 71 | 1019.3 |
| 20260906213106 | 77 | 76 | 0.9 | 7.0 | 0.00 | 0.00 | 0.00 | 71 | 1019.2 |
| 20260906211628 | 78 | 38 | 2.6 | 6.1 | 0.00 | 0.00 | 0.00 | 71 | 1019.5 |
| 20260906210149 | 79 | 73 | 0.9 | 3.5 | 0.00 | 0.00 | 0.00 | 70 | 1019.6 |
| 20260906204644 | 78 | 23 | 1.7 | 5.2 | 0.00 | 0.00 | 0.00 | 70 | 1019.8 |
| 20260906203136 | 79 | 321 | 1.7 | 6.1 | 0.00 | 0.00 | 0.00 | 70 | 1019.9 |
| 20260906201629 | 79 | 40 | 2.6 | 7.0 | 0.00 | 0.00 | 0.00 | 69 | 1019.7 |
| 20260906200141 | 80 | 220 | 1.7 | 4.3 | 0.00 | 0.00 | 0.00 | 68 | 1019.6 |
| 20260906194624 | 80 | 59 | 0.9 | 6.1 | 0.00 | 0.00 | 0.00 | 69 | 1019.7 |
| 20260906193154 | 81 | 183 | 1.7 | 7.0 | 0.00 | 0.00 | 0.00 | 71 | 1019.7 |
| 20260906191650 | 81 | 231 | 0.9 | 4.3 | 0.00 | 0.00 | 0.00 | 70 | 1020.1 |
| 20260906190204 | 81 | 227 | 0.0 | 2.6 | 0.00 | 0.00 | 0.00 | 70 | 1020.0 |
| 20260906184654 | 80 | 122 | 0.9 | 6.1 | 0.00 | 0.00 | 0.00 | 72 | 1020.1 |
| 20260906183116 | 80 | 133 | 1.7 | 7.0 | 0.00 | 0.00 | 0.00 | 70 | 1020.2 |
| 20260906181652 | 80 | 27 | 0.0 | 3.5 | 0.00 | 0.00 | 0.00 | 74 | 1020.4 |
| 20260906180137 | 80 | 216 | 0.9 | 4.3 | 0.00 | 0.00 | 0.00 | 74 | 1020.3 |
| 20260906174631 | 80 | 86 | 0.9 | 3.5 | 0.00 | 0.00 | 0.00 | 71 | 1020.6 |
| 20260906173144 | 81 | 324 | 1.7 | 6.1 | 0.00 | 0.00 | 0.00 | 70 | 1020.9 |
| 20260906171625 | 83 | 247 | 0.9 | 3.5 | 0.00 | 0.00 | 0.00 | 67 | 1021.1 |
| 20260906170141 | 83 | 20 | 0.0 | 2.6 | 0.00 | 0.00 | 0.00 | 67 | 1021.2 |
| 20260906164717 | 82 | 49 | 0.0 | 1.7 | 0.00 | 0.00 | 0.00 | 68 | 1020.9 |
| 20260906163133 | 82 | 38 | 0.9 | 2.6 | 0.00 | 0.00 | 0.00 | 68 | 1021.0 |
| 20260906161625 | 81 | 61 | 0.9 | 2.6 | 0.00 | 0.00 | 0.00 | 68 | 1021.0 |
| 20260906160203 | 80 | 360 | 0.0 | 3.5 | 0.00 | 0.00 | 0.00 | 71 | 1021.1 |
| 20260906154632 | 79 | 350 | 0.0 | 1.7 | 0.00 | 0.00 | 0.00 | 73 | 1021.0 |
| 20260906153149 | 78 | 57 | 0.0 | 2.6 | 0.00 | 0.00 | 0.00 | 74 | 1020.9 |
| 20260906151648 | 76 | 63 | 0.0 | 1.7 | 0.00 | 0.00 | 0.00 | 78 | 1020.9 |
| 20260906150123 | 76 | 75 | 0.9 | 1.7 | 0.00 | 0.00 | 0.00 | 78 | 1021.3 |
| 20260906144700 | 74 | 179 | 0.0 | 1.7 | 0.00 | 0.00 | 0.00 | 80 | 1021.1 |
| 20260906143123 | 74 | 57 | 0.9 | 1.7 | 0.00 | 0.00 | 0.00 | 81 | 1020.9 |
| 20260906141632 | 72 | 327 | 0.0 | 1.7 | 0.00 | 0.00 | 0.00 | 83 | 1021.0 |
| 20260906140157 | 70 | 55 | 0.0 | 1.7 | 0.00 | 0.00 | 0.00 | 85 | 1021.2 |
| 20260906134655 | 68 | 259 | 0.0 | 1.7 | 0.00 | 0.00 | 0.00 | 88 | 1021.0 |
| 20260906133122 | 66 | 259 | 0.0 | 0.9 | 0.00 | 0.00 | 0.00 | 92 | 1021.0 |
| 20260906131627 | 64 | 259 | 0.0 | 0.9 | 0.00 | 0.00 | 0.00 | 96 | 1020.9 |
| 20260906130136 | 62 | 259 | 0.0 | 0.9 | 0.00 | 0.00 | 0.00 | 98 | 1021.0 |
| 20260906124629 | 60 | 259 | 0.0 | 0.0 | 0.00 | 0.00 | 0.00 | 97 | 1021.1 |
| 20260906123130 | 60 | 259 | 0.0 | 0.0 | 0.00 | 0.00 | 0.00 | 97 | 1020.8 |
| 20260906121617 | 59 | 259 | 0.0 | 0.0 | 0.00 | 0.00 | 0.00 | 97 | 1020.7 |
| 20260906120136 | 60 | 259 | 0.0 | 0.0 | 0.00 | 0.00 | 0.00 | 97 | 1020.5 |
| 20260906114630 | 60 | 259 | 0.0 | 0.0 | 0.00 | 0.01 | 0.00 | 97 | 1020.3 |
| 20260906113135 | 60 | 259 | 0.0 | 0.0 | 0.00 | 0.01 | 0.00 | 97 | 1020.1 |
| 20260906111641 | 60 | 259 | 0.0 | 0.0 | 0.00 | 0.01 | 0.00 | 97 | 1019.9 |
| 20260906110128 | 60 | 259 | 0.0 | 0.0 | 0.00 | 0.01 | 0.00 | 97 | 1019.7 |
| 20260906104637 | 60 | 259 | 0.0 | 0.0 | 0.00 | 0.01 | 0.00 | 97 | 1019.7 |
| 20260906103103 | 60 | 259 | 0.0 | 0.0 | 0.00 | 0.01 | 0.00 | 97 | 1019.7 |
| 20260906101636 | 60 | 259 | 0.0 | 0.0 | 0.00 | 0.01 | 0.00 | 97 | 1019.6 |
| 20260906100137 | 60 | 259 | 0.0 | 0.0 | 0.00 | 0.01 | 0.00 | 97 | 1019.6 |
| 20260906094603 | 60 | 259 | 0.0 | 0.0 | 0.00 | 0.01 | 0.00 | 97 | 1019.6 |
| 20260906093102 | 60 | 259 | 0.0 | 0.0 | 0.00 | 0.01 | 0.00 | 97 | 1019.7 |
| 20260906091625 | 60 | 259 | 0.0 | 0.0 | 0.00 | 0.01 | 0.00 | 97 | 1019.8 |
| 20260906090158 | 60 | 259 | 0.0 | 0.0 | 0.00 | 0.01 | 0.00 | 97 | 1019.8 |
| 20260906084621 | 60 | 259 | 0.0 | 0.0 | 0.00 | 0.01 | 0.00 | 97 | 1019.9 |
| 20260906083106 | 60 | 259 | 0.0 | 0.0 | 0.00 | 0.01 | 0.00 | 97 | 1019.9 |
| 20260906081620 | 60 | 259 | 0.0 | 0.0 | 0.00 | 0.01 | 0.00 | 97 | 1019.7 |
| 20260906080121 | 60 | 259 | 0.0 | 0.0 | 0.00 | 0.01 | 0.00 | 97 | 1019.8 |
| 20260906074649 | 60 | 259 | 0.0 | 0.9 | 0.00 | 0.01 | 0.00 | 97 | 1019.8 |
| 20260906073134 | 60 | 259 | 0.0 | 0.0 | 0.00 | 0.01 | 0.00 | 97 | 1019.7 |
| 20260906071624 | 60 | 259 | 0.0 | 0.9 | 0.00 | 0.01 | 0.00 | 97 | 1019.9 |
| 20260906070110 | 60 | 259 | 0.0 | 0.0 | 0.00 | 0.01 | 0.00 | 96 | 1019.9 |
| 20260906064542 | 60 | 259 | 0.0 | 0.0 | 0.00 | 0.01 | 0.00 | 96 | 1019.8 |
| 20260906063132 | 60 | 259 | 0.0 | 0.0 | 0.00 | 0.01 | 0.00 | 96 | 1019.9 |
| 20260906061603 | 60 | 259 | 0.0 | 0.0 | 0.00 | 0.01 | 0.00 | 96 | 1020.1 |
| 20260906060150 | 61 | 259 | 0.0 | 0.0 | 0.00 | 0.01 | 0.00 | 95 | 1019.8 |
| 20260906054654 | 61 | 259 | 0.0 | 0.0 | 0.00 | 0.01 | 0.00 | 96 | 1019.6 |
| 20260906053139 | 61 | 259 | 0.0 | 0.9 | 0.00 | 0.01 | 0.00 | 96 | 1019.7 |
| 20260906051557 | 61 | 259 | 0.0 | 0.0 | 0.00 | 0.01 | 0.00 | 96 | 1019.3 |
| 20260906050053 | 62 | 259 | 0.0 | 0.0 | 0.00 | 0.01 | 0.00 | 96 | 1019.3 |
| 20260906044548 | 62 | 259 | 0.0 | 0.0 | 0.00 | 0.01 | 0.01 | 96 | 1019.5 |
| 20260906043104 | 62 | 259 | 0.0 | 0.0 | 0.00 | 0.01 | 0.01 | 96 | 1019.5 |
| 20260906041619 | 62 | 259 | 0.0 | 0.0 | 0.00 | 0.01 | 0.01 | 96 | 1018.9 |
| 20260906040121 | 62 | 259 | 0.0 | 0.0 | 0.00 | 0.01 | 0.01 | 95 | 1018.7 |
| 20260906034632 | 63 | 259 | 0.0 | 0.0 | 0.00 | 0.01 | 0.01 | 96 | 1018.8 |
| 20260906033145 | 63 | 259 | 0.0 | 0.0 | 0.00 | 0.01 | 0.01 | 96 | 1018.6 |
| 20260906031626 | 63 | 259 | 0.0 | 0.9 | 0.00 | 0.01 | 0.01 | 96 | 1018.8 |
| 20260906024558 | 62 | 204 | 0.0 | 0.0 | 0.00 | 0.01 | 0.01 | 95 | 1018.6 |
| 20260906023127 | 62 | 204 | 0.0 | 0.0 | 0.00 | 0.01 | 0.01 | 95 | 1018.4 |
| 20260906021646 | 63 | 204 | 0.0 | 0.0 | 0.00 | 0.01 | 0.01 | 95 | 1018.5 |
| 20260906020125 | 63 | 204 | 0.0 | 0.0 | 0.00 | 0.01 | 0.01 | 94 | 1018.3 |
| 20260906014553 | 63 | 204 | 0.0 | 0.9 | 0.00 | 0.01 | 0.01 | 94 | 1018.4 |
| 20260906013123 | 63 | 204 | 0.0 | 0.0 | 0.00 | 0.01 | 0.01 | 93 | 1018.2 |
| 20260906011624 | 64 | 204 | 0.0 | 0.0 | 0.00 | 0.01 | 0.01 | 92 | 1018.2 |
| 20260906010147 | 65 | 204 | 0.0 | 0.9 | 0.00 | 0.01 | 0.01 | 91 | 1018.3 |
| 20260906004635 | 65 | 204 | 0.0 | 0.0 | 0.00 | 0.01 | 0.01 | 89 | 1018.4 |
| 20260906003123 | 67 | 204 | 0.0 | 0.0 | 0.00 | 0.01 | 0.01 | 87 | 1018.6 |
| 20260906001638 | 68 | 204 | 0.0 | 0.0 | 0.00 | 0.01 | 0.01 | 85 | 1018.6 |
| 20260906000135 | 70 | 292 | 0.0 | 0.9 | 0.00 | 0.01 | 0.01 | 81 | 1018.6 |
| 20260905234608 | 71 | 309 | 0.9 | 2.6 | 0.00 | 0.01 | 0.01 | 79 | 1018.7 |
| 20260905233128 | 71 | 348 | 0.9 | 7.0 | 0.00 | 0.01 | 0.01 | 78 | 1018.8 |
| 20260905231637 | 72 | 90 | 0.9 | 5.2 | 0.00 | 0.01 | 0.01 | 77 | 1018.6 |
| 20260905230110 | 73 | 177 | 0.0 | 6.1 | 0.00 | 0.01 | 0.01 | 78 | 1018.6 |
| 20260905224630 | 73 | 36 | 0.0 | 7.0 | 0.00 | 0.01 | 0.01 | 76 | 1018.7 |
| 20260905223126 | 74 | 9 | 0.9 | 4.3 | 0.00 | 0.01 | 0.01 | 74 | 1018.8 |
| 20260905221609 | 74 | 267 | 1.7 | 7.0 | 0.00 | 0.01 | 0.01 | 75 | 1018.9 |